TimeMDT,TemperatureF,Dew PointF,Humidity,Sea Level PressureIn,VisibilityMPH,Wind Direction,Wind SpeedMPH,Gust SpeedMPH,PrecipitationIn,Events,Conditions,WindDirDegrees,DateUTC
12:53 AM,53.1,41.0,64,29.79,10.0,Calm,Calm,-,N/A,,Overcast,0,2013-05-17 06:53:00
1:53 AM,53.1,42.1,66,29.79,10.0,SSW,10.4,-,N/A,,Overcast,210,2013-05-17 07:53:00
2:53 AM,52.0,43.0,71,29.79,10.0,WSW,5.8,-,0.00,Rain,Light Rain,240,2013-05-17 08:53:00
3:53 AM,51.1,44.1,77,29.80,10.0,WSW,6.9,-,0.00,Rain,Light Rain,240,2013-05-17 09:53:00
4:53 AM,48.9,45.0,86,29.80,10.0,SSW,5.8,-,0.00,,Mostly Cloudy,200,2013-05-17 10:53:00
5:53 AM,50.0,44.6,82,29.88,10.0,SSW,5.8,-,N/A,Rain,Light Rain,210,2013-05-17 11:53:00
6:53 AM,50.0,46.0,86,29.83,10.0,South,4.6,-,0.00,Rain,Light Rain,180,2013-05-17 12:53:00
7:53 AM,51.1,46.9,86,29.84,10.0,South,9.2,-,0.02,Rain,Light Rain,190,2013-05-17 13:53:00
8:53 AM,52.0,48.0,86,29.85,10.0,South,6.9,-,0.01,Rain,Light Rain,180,2013-05-17 14:53:00
9:53 AM,52.0,46.9,83,29.86,10.0,South,10.4,-,0.00,,Mostly Cloudy,190,2013-05-17 15:53:00
10:53 AM,54.0,48.0,80,29.87,10.0,South,9.2,-,0.00,Rain,Light Rain,190,2013-05-17 16:53:00
11:53 AM,54.0,46.0,75,29.87,10.0,SSW,10.4,-,0.00,,Mostly Cloudy,200,2013-05-17 17:53:00
12:53 PM,51.8,46.4,82,29.94,10.0,SSW,15.0,-,N/A,,Mostly Cloudy,200,2013-05-17 18:53:00
1:53 PM,55.0,44.1,67,29.87,10.0,South,12.7,-,N/A,,Mostly Cloudy,180,2013-05-17 19:53:00
2:53 PM,57.9,43.0,58,29.86,10.0,SSW,9.2,-,N/A,,Mostly Cloudy,210,2013-05-17 20:53:00
3:53 PM,59.0,42.1,53,29.85,10.0,South,3.5,-,N/A,,Mostly Cloudy,170,2013-05-17 21:53:00
4:53 PM,59.0,43.0,55,29.86,10.0,South,8.1,-,N/A,,Mostly Cloudy,190,2013-05-17 22:53:00
5:53 PM,60.1,43.0,53,29.84,10.0,South,9.2,-,N/A,,Mostly Cloudy,190,2013-05-17 23:53:00
6:53 PM,61.0,42.1,50,29.83,10.0,South,13.8,-,N/A,,Mostly Cloudy,180,2013-05-18 00:53:00
7:53 PM,57.9,44.1,60,29.84,10.0,SSW,11.5,-,N/A,,Mostly Cloudy,200,2013-05-18 01:53:00
8:53 PM,55.0,43.0,64,29.86,10.0,South,8.1,-,N/A,,Scattered Clouds,190,2013-05-18 02:53:00
9:53 PM,53.1,44.1,71,29.88,10.0,South,6.9,-,N/A,,Overcast,180,2013-05-18 03:53:00
10:53 PM,52.0,44.1,74,29.89,10.0,SW,5.8,-,N/A,,Overcast,230,2013-05-18 04:53:00
11:53 PM,50.0,43.0,77,29.89,10.0,South,3.5,-,N/A,,Overcast,190,2013-05-18 05:53:00